Hourly Data Report for October 05, 2017

All times are specified in Local Standard Time (LST). Add 1 hour to adjust for Daylight Saving Time where and when it is observed.

GRETNA (AUT)
MANITOBA

49°01'51.004" N
97°33'36.003" W
252.60 m
5021220
71441
WGN

Download Data

Hourly Data (October 2017)
Hourly Data Report for October 5, 2017
Temp Definition
°C
Dew Point Temp Definition
°C
Rel Hum Definition
%
Wind Dir Definition
10's deg

Wind Spd Definition
km/h
Visibility Definition
km
Stn Press Definition
kPa
Hmdx Definition


Wind Chill Definition


Weather Definition


TIME
00:00 4.4 1.1 79 25 14   98.89     LegendNANA
01:00 3.8 0.4 79 27 14   98.90     LegendNANA
02:00 2.2 -0.2 84 27 13   98.91     LegendNANA
03:00 1.8 -0.4 85 28 12   98.92     LegendNANA
04:00 2.2 -0.3 84 26 11   98.94     LegendNANA
05:00 1.1 -0.9 86 27 8   98.95     LegendNANA
06:00 -0.1 -2.0 87 30 11   98.98   -4 LegendNANA
07:00 0.3 -1.3 89 28 8   99.00     LegendNANA
08:00 3.4 0.9 83 31 10   99.05     LegendNANA
09:00 6.9 2.9 75 36 10   99.06     LegendNANA
10:00 9.7 3.2 64 1 15   99.07     LegendNANA
11:00 11.2 2.4 55 36 12   99.05     LegendNANA
12:00 12.0 2.9 54 35 11   99.04     LegendNANA
13:00 12.6 3.4 53 31 11   98.99     LegendNANA
14:00 12.8 2.0 48 30 13   98.94     LegendNANA
15:00 13.5 2.1 46 35 10   98.91     LegendNANA
16:00 14.1 1.2 42 31 13   98.87     LegendNANA
17:00 13.4 1.5 44 33 13   98.84     LegendNANA
18:00 10.0 0.5 52 34 9   98.81     LegendNANA
19:00 7.9 1.0 62 1 3   98.83     LegendNANA
20:00 6.2 2.3 77 15 2   98.84     LegendNANA
21:00 4.0 1.6 85 17 7   98.83     LegendNANA
22:00 3.2 0.8 84 18 7   98.82     LegendNANA
23:00 5.6 1.6 75 19 9   98.79     LegendNANA

Notes on Data Quality.

Legend

  • E = Estimated
  • M = Missing
  • NA = Not Available
  • ‡ = Partner data that is not subject to review by the National Climate Archives
Date modified: